| time (UTC) | temp F | wind direction | speed MPH | gust MPH | rain 1hr in | rain 24hr in | rain mn in | humidity % | barometer mb |
| 20260906223513 | 99 | 71 | 2.0 | 8.0 | 0.00 | 0.00 | 0.00 | 38 | 1011.5 |
| 20260906223037 | 99 | 78 | 2.0 | 9.0 | 0.00 | 0.00 | 0.00 | 38 | 1011.5 |
| 20260906222511 | 99 | 55 | 3.0 | 11.0 | 0.00 | 0.00 | 0.00 | 38 | 1011.5 |
| 20260906222012 | 99 | 235 | 3.0 | 11.0 | 0.00 | 0.00 | 0.00 | 37 | 1011.6 |
| 20260906221528 | 99 | 228 | 3.0 | 8.0 | 0.00 | 0.00 | 0.00 | 37 | 1011.5 |
| 20260906221011 | 99 | 360 | 3.0 | 11.0 | 0.00 | 0.00 | 0.00 | 36 | 1011.7 |
| 20260906220510 | 99 | 103 | 5.0 | 11.0 | 0.00 | 0.00 | 0.00 | 37 | 1011.8 |
| 20260906220027 | 99 | 138 | 4.0 | 9.0 | 0.00 | 0.00 | 0.00 | 37 | 1011.8 |
| 20260906215510 | 99 | 74 | 2.0 | 9.0 | 0.00 | 0.00 | 0.00 | 36 | 1011.8 |
| 20260906215012 | 99 | 98 | 3.0 | 10.0 | 0.00 | 0.00 | 0.00 | 37 | 1011.9 |
| 20260906214534 | 99 | 57 | 6.0 | 10.0 | 0.00 | 0.00 | 0.00 | 37 | 1011.9 |
| 20260906214016 | 99 | 134 | 2.0 | 7.0 | 0.00 | 0.00 | 0.00 | 38 | 1012.0 |
| 20260906213512 | 98 | 153 | 4.0 | 7.0 | 0.00 | 0.00 | 0.00 | 38 | 1012.0 |
| 20260906213027 | 98 | 54 | 3.0 | 9.0 | 0.00 | 0.00 | 0.00 | 37 | 1012.2 |
| 20260906212511 | 98 | 22 | 4.0 | 9.0 | 0.00 | 0.00 | 0.00 | 39 | 1012.3 |
| 20260906212006 | 99 | 360 | 3.0 | 9.0 | 0.00 | 0.00 | 0.00 | 38 | 1012.4 |
| 20260906211531 | 99 | 219 | 3.0 | 10.0 | 0.00 | 0.00 | 0.00 | 38 | 1012.4 |
| 20260906211015 | 100 | 63 | 3.0 | 10.0 | 0.00 | 0.00 | 0.00 | 37 | 1012.4 |
| 20260906210509 | 99 | 87 | 3.0 | 10.0 | 0.00 | 0.00 | 0.00 | 38 | 1012.6 |
| 20260906210020 | 99 | 86 | 5.0 | 10.0 | 0.00 | 0.00 | 0.00 | 38 | 1012.6 |
| 20260906205511 | 98 | 129 | 1.0 | 9.0 | 0.00 | 0.00 | 0.00 | 40 | 1012.6 |
| 20260906205013 | 98 | 82 | 4.0 | 9.0 | 0.00 | 0.00 | 0.00 | 39 | 1012.7 |
| 20260906204531 | 97 | 65 | 2.0 | 8.0 | 0.00 | 0.00 | 0.00 | 41 | 1012.6 |
| 20260906204003 | 97 | 57 | 3.0 | 8.0 | 0.00 | 0.00 | 0.00 | 39 | 1012.7 |
| 20260906203501 | 98 | 73 | 3.0 | 13.0 | 0.00 | 0.00 | 0.00 | 39 | 1012.8 |
| 20260906203009 | 98 | 24 | 3.0 | 13.0 | 0.00 | 0.00 | 0.00 | 40 | 1012.9 |
| 20260906202501 | 98 | 134 | 1.0 | 10.0 | 0.00 | 0.00 | 0.00 | 40 | 1012.9 |
| 20260906202004 | 98 | 280 | 1.0 | 10.0 | 0.00 | 0.00 | 0.00 | 41 | 1012.9 |
| 20260906201513 | 97 | 65 | 3.0 | 10.0 | 0.00 | 0.00 | 0.00 | 41 | 1013.0 |
| 20260906201006 | 98 | 126 | 4.0 | 10.0 | 0.00 | 0.00 | 0.00 | 40 | 1013.0 |
| 20260906200507 | 98 | 101 | 4.0 | 10.0 | 0.00 | 0.00 | 0.00 | 40 | 1013.1 |
| 20260906200035 | 98 | 115 | 3.0 | 10.0 | 0.00 | 0.00 | 0.00 | 40 | 1013.2 |
| 20260906195508 | 98 | 21 | 2.0 | 10.0 | 0.00 | 0.00 | 0.00 | 41 | 1013.2 |
| 20260906195014 | 99 | 83 | 4.0 | 10.0 | 0.00 | 0.00 | 0.00 | 39 | 1013.2 |
| 20260906194527 | 99 | 70 | 3.0 | 11.0 | 0.00 | 0.00 | 0.00 | 40 | 1013.2 |
| 20260906194012 | 98 | 173 | 3.0 | 11.0 | 0.00 | 0.00 | 0.00 | 39 | 1013.3 |
| 20260906193514 | 98 | 161 | 4.0 | 11.0 | 0.00 | 0.00 | 0.00 | 40 | 1013.3 |
| 20260906193004 | 97 | 90 | 4.0 | 10.0 | 0.00 | 0.00 | 0.00 | 39 | 1013.4 |
| 20260906192503 | 97 | 126 | 3.0 | 9.0 | 0.00 | 0.00 | 0.00 | 40 | 1013.4 |
| 20260906192003 | 97 | 90 | 3.0 | 8.0 | 0.00 | 0.00 | 0.00 | 40 | 1013.5 |
| 20260906191514 | 97 | 5 | 4.0 | 8.0 | 0.00 | 0.00 | 0.00 | 40 | 1013.6 |
| 20260906191005 | 97 | 136 | 3.0 | 12.0 | 0.00 | 0.00 | 0.00 | 40 | 1013.6 |
| 20260906190505 | 97 | 168 | 3.0 | 12.0 | 0.00 | 0.00 | 0.00 | 39 | 1013.6 |
| 20260906190017 | 97 | 313 | 1.0 | 13.0 | 0.00 | 0.00 | 0.00 | 40 | 1013.6 |
| 20260906185507 | 97 | 128 | 5.0 | 13.0 | 0.00 | 0.00 | 0.00 | 40 | 1013.7 |
| 20260906185008 | 97 | 158 | 2.0 | 8.0 | 0.00 | 0.00 | 0.00 | 43 | 1013.7 |
| 20260906184520 | 96 | 67 | 2.0 | 12.0 | 0.00 | 0.00 | 0.00 | 43 | 1013.8 |
| 20260906184011 | 97 | 90 | 4.0 | 12.0 | 0.00 | 0.00 | 0.00 | 42 | 1013.9 |
| 20260906183514 | 97 | 167 | 4.0 | 12.0 | 0.00 | 0.00 | 0.00 | 41 | 1013.9 |
| 20260906183028 | 97 | 196 | 3.0 | 9.0 | 0.00 | 0.00 | 0.00 | 41 | 1013.9 |
| 20260906182513 | 96 | 40 | 4.0 | 14.0 | 0.00 | 0.00 | 0.00 | 43 | 1014.0 |
| 20260906182002 | 96 | 115 | 4.0 | 14.0 | 0.00 | 0.00 | 0.00 | 43 | 1014.0 |
| 20260906181524 | 97 | 15 | 0.0 | 9.0 | 0.00 | 0.00 | 0.00 | 44 | 1014.1 |
| 20260906181005 | 96 | 138 | 3.0 | 10.0 | 0.00 | 0.00 | 0.00 | 44 | 1014.2 |
| 20260906180505 | 96 | 53 | 3.0 | 9.0 | 0.00 | 0.00 | 0.00 | 43 | 1014.3 |
| 20260906180020 | 96 | 86 | 3.0 | 9.0 | 0.00 | 0.00 | 0.00 | 44 | 1014.4 |
| 20260906175506 | 96 | 92 | 2.0 | 8.0 | 0.00 | 0.00 | 0.00 | 46 | 1014.4 |
| 20260906175010 | 96 | 101 | 3.0 | 10.0 | 0.00 | 0.00 | 0.00 | 43 | 1014.6 |
| 20260906174521 | 96 | 162 | 3.0 | 10.0 | 0.00 | 0.00 | 0.00 | 43 | 1014.6 |
| 20260906174013 | 96 | 92 | 4.0 | 10.0 | 0.00 | 0.00 | 0.00 | 44 | 1014.7 |
| 20260906173511 | 95 | 64 | 2.0 | 7.0 | 0.00 | 0.00 | 0.00 | 46 | 1014.8 |
| 20260906173026 | 95 | 95 | 3.0 | 7.0 | 0.00 | 0.00 | 0.00 | 47 | 1014.9 |
| 20260906172513 | 94 | 53 | 3.0 | 11.0 | 0.00 | 0.00 | 0.00 | 45 | 1014.9 |
| 20260906172014 | 94 | 167 | 6.0 | 11.0 | 0.00 | 0.00 | 0.00 | 46 | 1015.0 |
| 20260906171531 | 95 | 84 | 4.0 | 10.0 | 0.00 | 0.00 | 0.00 | 46 | 1015.1 |
| 20260906171000 | 95 | 66 | 3.0 | 9.0 | 0.00 | 0.00 | 0.00 | 48 | 1015.1 |
| 20260906170503 | 94 | 112 | 1.0 | 6.0 | 0.00 | 0.00 | 0.00 | 50 | 1015.2 |
| 20260906170009 | 94 | 26 | 3.0 | 9.0 | 0.00 | 0.00 | 0.00 | 48 | 1015.3 |
| 20260906165504 | 94 | 82 | 3.0 | 10.0 | 0.00 | 0.00 | 0.00 | 48 | 1015.4 |
| 20260906165004 | 94 | 112 | 4.0 | 10.0 | 0.00 | 0.00 | 0.00 | 49 | 1015.3 |
| 20260906164518 | 94 | 92 | 3.0 | 6.0 | 0.00 | 0.00 | 0.00 | 48 | 1015.4 |
| 20260906164010 | 94 | 58 | 2.0 | 5.0 | 0.00 | 0.00 | 0.00 | 50 | 1015.4 |
| 20260906163508 | 93 | 212 | 2.0 | 6.0 | 0.00 | 0.00 | 0.00 | 52 | 1015.4 |
| 20260906163023 | 93 | 220 | 1.0 | 6.0 | 0.00 | 0.00 | 0.00 | 52 | 1015.4 |
| 20260906162512 | 92 | 60 | 2.0 | 6.0 | 0.00 | 0.00 | 0.00 | 51 | 1015.5 |
| 20260906162012 | 92 | 75 | 2.0 | 8.0 | 0.00 | 0.00 | 0.00 | 51 | 1015.5 |
| 20260906161527 | 92 | 76 | 2.0 | 8.0 | 0.00 | 0.00 | 0.00 | 53 | 1015.5 |
| 20260906161014 | 92 | 69 | 2.0 | 6.0 | 0.00 | 0.00 | 0.00 | 54 | 1015.4 |
| 20260906160517 | 92 | 42 | 2.0 | 6.0 | 0.00 | 0.00 | 0.00 | 54 | 1015.4 |
| 20260906160033 | 91 | 21 | 3.0 | 6.0 | 0.00 | 0.00 | 0.00 | 53 | 1015.3 |
| 20260906155504 | 91 | 28 | 1.0 | 6.0 | 0.00 | 0.00 | 0.00 | 54 | 1015.3 |
| 20260906155005 | 91 | 86 | 2.0 | 5.0 | 0.00 | 0.00 | 0.00 | 56 | 1015.3 |
| 20260906154531 | 91 | 50 | 2.0 | 4.0 | 0.00 | 0.00 | 0.00 | 56 | 1015.3 |
| 20260906154008 | 90 | 70 | 1.0 | 4.0 | 0.00 | 0.00 | 0.00 | 58 | 1015.3 |
| 20260906153509 | 90 | 269 | 1.0 | 3.0 | 0.00 | 0.00 | 0.00 | 58 | 1015.2 |
| 20260906153022 | 89 | 292 | 0.0 | 2.0 | 0.00 | 0.00 | 0.00 | 59 | 1015.2 |
| 20260906152512 | 89 | 5 | 1.0 | 3.0 | 0.00 | 0.00 | 0.00 | 59 | 1015.2 |
| 20260906152011 | 89 | 84 | 1.0 | 3.0 | 0.00 | 0.00 | 0.00 | 58 | 1015.2 |
| 20260906151528 | 89 | 360 | 2.0 | 3.0 | 0.00 | 0.00 | 0.00 | 59 | 1015.2 |
| 20260906151017 | 89 | 236 | 0.0 | 2.0 | 0.00 | 0.00 | 0.00 | 61 | 1015.2 |
| 20260906150514 | 89 | 178 | 1.0 | 2.0 | 0.00 | 0.00 | 0.00 | 63 | 1015.2 |
| 20260906150030 | 88 | 269 | 0.0 | 3.0 | 0.00 | 0.00 | 0.00 | 61 | 1015.2 |
| 20260906145519 | 88 | 207 | 1.0 | 3.0 | 0.00 | 0.00 | 0.00 | 63 | 1015.1 |
| 20260906145022 | 88 | 182 | 0.0 | 3.0 | 0.00 | 0.00 | 0.00 | 64 | 1015.1 |
| 20260906144534 | 87 | 169 | 0.0 | 3.0 | 0.00 | 0.00 | 0.00 | 66 | 1015.1 |
| 20260906144018 | 87 | 107 | 1.0 | 3.0 | 0.00 | 0.00 | 0.00 | 66 | 1015.1 |
| 20260906143516 | 86 | 170 | 1.0 | 3.0 | 0.00 | 0.00 | 0.00 | 67 | 1015.1 |
| 20260906143034 | 86 | 167 | 1.0 | 3.0 | 0.00 | 0.00 | 0.00 | 68 | 1015.1 |
| 20260906142517 | 85 | 142 | 0.0 | 2.0 | 0.00 | 0.00 | 0.00 | 69 | 1015.1 |
| 20260906142011 | 84 | 176 | 0.0 | 3.0 | 0.00 | 0.00 | 0.00 | 70 | 1015.0 |
| 20260906141533 | 84 | 45 | 1.0 | 3.0 | 0.00 | 0.00 | 0.00 | 70 | 1015.0 |
| 20260906141013 | 83 | 80 | 1.0 | 4.0 | 0.00 | 0.00 | 0.00 | 71 | 1015.1 |
| 20260906140512 | 83 | 101 | 2.0 | 4.0 | 0.00 | 0.00 | 0.00 | 71 | 1015.1 |
| 20260906140030 | 83 | 59 | 1.0 | 3.0 | 0.00 | 0.00 | 0.00 | 72 | 1015.1 |
| 20260906135515 | 82 | 151 | 1.0 | 4.0 | 0.00 | 0.00 | 0.00 | 74 | 1015.1 |
| 20260906135018 | 81 | 90 | 0.0 | 4.0 | 0.00 | 0.00 | 0.00 | 75 | 1015.0 |
| 20260906134535 | 81 | 65 | 1.0 | 4.0 | 0.00 | 0.00 | 0.00 | 74 | 1015.0 |
| 20260906134018 | 80 | 105 | 1.0 | 3.0 | 0.00 | 0.00 | 0.00 | 75 | 1015.0 |
| 20260906133515 | 80 | 44 | 1.0 | 3.0 | 0.00 | 0.00 | 0.00 | 76 | 1014.9 |
| 20260906133032 | 79 | 71 | 0.0 | 3.0 | 0.00 | 0.00 | 0.00 | 77 | 1014.9 |
| 20260906132517 | 79 | 76 | 1.0 | 3.0 | 0.00 | 0.00 | 0.00 | 78 | 1014.9 |
| 20260906132018 | 79 | 82 | 1.0 | 4.0 | 0.00 | 0.00 | 0.00 | 78 | 1014.9 |
| 20260906131537 | 78 | 57 | 0.0 | 4.0 | 0.00 | 0.00 | 0.00 | 78 | 1014.9 |
| 20260906131016 | 78 | 61 | 0.0 | 3.0 | 0.00 | 0.00 | 0.00 | 79 | 1014.8 |
| 20260906130511 | 77 | 53 | 1.0 | 3.0 | 0.00 | 0.00 | 0.00 | 80 | 1014.7 |
| 20260906130030 | 77 | 67 | 0.0 | 3.0 | 0.00 | 0.00 | 0.00 | 80 | 1014.6 |
| 20260906125513 | 77 | 59 | 1.0 | 3.0 | 0.00 | 0.00 | 0.00 | 80 | 1014.6 |
| 20260906125013 | 76 | 51 | 0.0 | 3.0 | 0.00 | 0.00 | 0.00 | 81 | 1014.6 |
| 20260906124539 | 76 | 66 | 0.0 | 4.0 | 0.00 | 0.00 | 0.00 | 81 | 1014.6 |
| 20260906124014 | 76 | 61 | 1.0 | 4.0 | 0.00 | 0.00 | 0.00 | 81 | 1014.6 |
| 20260906123517 | 76 | 74 | 1.0 | 4.0 | 0.00 | 0.00 | 0.00 | 81 | 1014.5 |
| 20260906123033 | 76 | 83 | 0.0 | 1.0 | 0.00 | 0.00 | 0.00 | 82 | 1014.5 |
| 20260906122516 | 76 | 64 | 0.0 | 1.0 | 0.00 | 0.00 | 0.00 | 82 | 1014.5 |
| 20260906122010 | 75 | 34 | 0.0 | 0.0 | 0.00 | 0.00 | 0.00 | 82 | 1014.4 |
| 20260906121521 | 75 | 63 | 0.0 | 0.0 | 0.00 | 0.00 | 0.00 | 82 | 1014.4 |
| 20260906121003 | 75 | 74 | 0.0 | 2.0 | 0.00 | 0.00 | 0.00 | 82 | 1014.3 |
| 20260906120500 | 75 | 63 | 0.0 | 2.0 | 0.00 | 0.00 | 0.00 | 82 | 1014.2 |
| 20260906120004 | 76 | 132 | 0.0 | 0.0 | 0.00 | 0.00 | 0.00 | 81 | 1014.2 |
| 20260906115504 | 76 | 132 | 0.0 | 0.0 | 0.00 | 0.00 | 0.00 | 81 | 1014.1 |
| 20260906115003 | 76 | 132 | 0.0 | 0.0 | 0.00 | 0.00 | 0.00 | 81 | 1014.1 |
| 20260906114525 | 76 | 132 | 0.0 | 0.0 | 0.00 | 0.00 | 0.00 | 81 | 1013.9 |
| 20260906114003 | 76 | 132 | 0.0 | 0.0 | 0.00 | 0.00 | 0.00 | 80 | 1013.9 |
| 20260906113503 | 76 | 132 | 0.0 | 0.0 | 0.00 | 0.00 | 0.00 | 81 | 1013.8 |
| 20260906113014 | 76 | 132 | 0.0 | 0.0 | 0.00 | 0.00 | 0.00 | 81 | 1013.8 |
| 20260906112503 | 76 | 132 | 0.0 | 0.0 | 0.00 | 0.00 | 0.00 | 81 | 1013.7 |
| 20260906112008 | 76 | 132 | 0.0 | 0.0 | 0.00 | 0.00 | 0.00 | 81 | 1013.7 |
| 20260906111517 | 76 | 132 | 0.0 | 0.0 | 0.00 | 0.00 | 0.00 | 81 | 1013.7 |
| 20260906111011 | 76 | 132 | 0.0 | 0.0 | 0.00 | 0.00 | 0.00 | 81 | 1013.7 |
| 20260906110512 | 76 | 132 | 0.0 | 0.0 | 0.00 | 0.00 | 0.00 | 81 | 1013.8 |
| 20260906110028 | 76 | 132 | 0.0 | 0.0 | 0.00 | 0.00 | 0.00 | 81 | 1013.8 |
| 20260906105504 | 76 | 132 | 0.0 | 0.0 | 0.00 | 0.00 | 0.00 | 81 | 1013.7 |
| 20260906105004 | 76 | 132 | 0.0 | 0.0 | 0.00 | 0.00 | 0.00 | 81 | 1013.7 |
| 20260906104508 | 76 | 132 | 0.0 | 0.0 | 0.00 | 0.00 | 0.00 | 81 | 1013.7 |
| 20260906104003 | 76 | 132 | 0.0 | 0.0 | 0.00 | 0.00 | 0.00 | 80 | 1013.7 |
| 20260906103504 | 76 | 132 | 0.0 | 0.0 | 0.00 | 0.00 | 0.00 | 80 | 1013.7 |
| 20260906103012 | 76 | 132 | 0.0 | 0.0 | 0.00 | 0.00 | 0.00 | 80 | 1013.7 |
| 20260906102508 | 76 | 132 | 0.0 | 0.0 | 0.00 | 0.00 | 0.00 | 79 | 1013.7 |
| 20260906102003 | 77 | 132 | 0.0 | 0.0 | 0.00 | 0.00 | 0.00 | 79 | 1013.7 |
| 20260906101516 | 77 | 132 | 0.0 | 0.0 | 0.00 | 0.00 | 0.00 | 79 | 1013.6 |
| 20260906101009 | 77 | 132 | 0.0 | 0.0 | 0.00 | 0.00 | 0.00 | 79 | 1013.6 |
| 20260906100508 | 77 | 132 | 0.0 | 0.0 | 0.00 | 0.00 | 0.00 | 79 | 1013.6 |
| 20260906100029 | 77 | 132 | 0.0 | 0.0 | 0.00 | 0.00 | 0.00 | 79 | 1013.6 |
| 20260906095511 | 77 | 132 | 0.0 | 0.0 | 0.00 | 0.00 | 0.00 | 79 | 1013.5 |
| 20260906095013 | 77 | 132 | 0.0 | 0.0 | 0.00 | 0.00 | 0.00 | 79 | 1013.5 |
| 20260906094513 | 77 | 132 | 0.0 | 0.0 | 0.00 | 0.00 | 0.00 | 78 | 1013.6 |
| 20260906094001 | 77 | 132 | 0.0 | 0.0 | 0.00 | 0.00 | 0.00 | 78 | 1013.5 |
| 20260906093503 | 78 | 132 | 0.0 | 0.0 | 0.00 | 0.00 | 0.00 | 77 | 1013.5 |
| 20260906093017 | 78 | 132 | 0.0 | 0.0 | 0.00 | 0.00 | 0.00 | 77 | 1013.4 |
| 20260906092504 | 78 | 132 | 0.0 | 0.0 | 0.00 | 0.00 | 0.00 | 77 | 1013.3 |
| 20260906092003 | 78 | 132 | 0.0 | 0.0 | 0.00 | 0.00 | 0.00 | 77 | 1013.2 |
| 20260906091515 | 78 | 132 | 0.0 | 0.0 | 0.00 | 0.00 | 0.00 | 77 | 1013.1 |
| 20260906091005 | 78 | 132 | 0.0 | 0.0 | 0.00 | 0.00 | 0.00 | 77 | 1013.0 |
| 20260906090509 | 78 | 132 | 0.0 | 0.0 | 0.00 | 0.00 | 0.00 | 77 | 1013.1 |
| 20260906090030 | 78 | 132 | 0.0 | 0.0 | 0.00 | 0.00 | 0.00 | 77 | 1013.1 |
| 20260906085512 | 78 | 132 | 0.0 | 0.0 | 0.00 | 0.00 | 0.00 | 77 | 1013.0 |
| 20260906085011 | 78 | 132 | 0.0 | 0.0 | 0.00 | 0.00 | 0.00 | 77 | 1012.9 |
| 20260906084527 | 78 | 132 | 0.0 | 0.0 | 0.00 | 0.00 | 0.00 | 76 | 1013.0 |
| 20260906084015 | 79 | 132 | 0.0 | 0.0 | 0.00 | 0.00 | 0.00 | 76 | 1013.0 |
| 20260906083500 | 79 | 117 | 0.0 | 3.0 | 0.00 | 0.00 | 0.00 | 76 | 1012.9 |
| 20260906083004 | 79 | 117 | 1.0 | 3.0 | 0.00 | 0.00 | 0.00 | 76 | 1012.9 |
| 20260906082504 | 79 | 132 | 0.0 | 3.0 | 0.00 | 0.00 | 0.00 | 76 | 1013.0 |
| 20260906082004 | 79 | 140 | 0.0 | 3.0 | 0.00 | 0.00 | 0.00 | 76 | 1013.0 |
| 20260906081514 | 79 | 128 | 1.0 | 3.0 | 0.00 | 0.00 | 0.00 | 76 | 1013.1 |
| 20260906081005 | 79 | 103 | 0.0 | 3.0 | 0.00 | 0.00 | 0.00 | 76 | 1013.2 |
| 20260906080508 | 79 | 131 | 1.0 | 3.0 | 0.00 | 0.00 | 0.00 | 76 | 1013.3 |
| 20260906080017 | 79 | 148 | 0.0 | 4.0 | 0.00 | 0.00 | 0.00 | 76 | 1013.3 |
| 20260906075509 | 79 | 170 | 2.0 | 4.0 | 0.00 | 0.00 | 0.00 | 76 | 1013.4 |
| 20260906075011 | 79 | 155 | 2.0 | 4.0 | 0.00 | 0.00 | 0.00 | 76 | 1013.4 |
| 20260906074527 | 79 | 140 | 1.0 | 3.0 | 0.00 | 0.00 | 0.00 | 76 | 1013.5 |
| 20260906074012 | 79 | 135 | 0.0 | 2.0 | 0.00 | 0.00 | 0.00 | 76 | 1013.4 |
| 20260906073514 | 80 | 130 | 0.0 | 2.0 | 0.00 | 0.00 | 0.00 | 76 | 1013.5 |
| 20260906073031 | 79 | 146 | 0.0 | 2.0 | 0.00 | 0.00 | 0.00 | 75 | 1013.4 |
| 20260906072504 | 79 | 134 | 1.0 | 2.0 | 0.00 | 0.00 | 0.00 | 76 | 1013.4 |
| 20260906072003 | 79 | 119 | 1.0 | 2.0 | 0.00 | 0.00 | 0.00 | 75 | 1013.4 |
| 20260906071508 | 79 | 119 | 1.0 | 2.0 | 0.00 | 0.00 | 0.00 | 76 | 1013.4 |
| 20260906071004 | 79 | 143 | 0.0 | 2.0 | 0.00 | 0.00 | 0.00 | 76 | 1013.3 |
| 20260906070506 | 79 | 143 | 0.0 | 0.0 | 0.00 | 0.00 | 0.00 | 76 | 1013.3 |
| 20260906070017 | 79 | 143 | 0.0 | 3.0 | 0.00 | 0.00 | 0.00 | 76 | 1013.4 |
| 20260906065509 | 79 | 143 | 0.0 | 5.0 | 0.00 | 0.00 | 0.00 | 76 | 1013.4 |
| 20260906065008 | 79 | 133 | 0.0 | 5.0 | 0.00 | 0.00 | 0.00 | 77 | 1013.4 |
| 20260906064519 | 79 | 134 | 1.0 | 4.0 | 0.00 | 0.00 | 0.00 | 77 | 1013.5 |
| 20260906064012 | 79 | 132 | 1.0 | 4.0 | 0.00 | 0.00 | 0.00 | 77 | 1013.7 |
| 20260906063511 | 79 | 144 | 1.0 | 3.0 | 0.00 | 0.00 | 0.00 | 77 | 1013.7 |
| 20260906063034 | 79 | 142 | 1.0 | 2.0 | 0.00 | 0.00 | 0.00 | 77 | 1013.7 |
| 20260906062514 | 80 | 134 | 0.0 | 1.0 | 0.00 | 0.00 | 0.00 | 76 | 1013.6 |
| 20260906062015 | 80 | 134 | 0.0 | 0.0 | 0.00 | 0.00 | 0.00 | 76 | 1013.6 |
| 20260906061510 | 80 | 134 | 0.0 | 0.0 | 0.00 | 0.00 | 0.00 | 75 | 1013.7 |
| 20260906061003 | 80 | 134 | 0.0 | 0.0 | 0.00 | 0.00 | 0.00 | 74 | 1013.8 |
| 20260906060503 | 80 | 134 | 0.0 | 0.0 | 0.00 | 0.00 | 0.00 | 74 | 1013.8 |
| 20260906060013 | 80 | 134 | 0.0 | 0.0 | 0.00 | 0.00 | 0.00 | 74 | 1013.9 |
| 20260906055507 | 80 | 134 | 0.0 | 0.0 | 0.00 | 0.00 | 0.00 | 74 | 1014.0 |
| 20260906055009 | 79 | 134 | 0.0 | 0.0 | 0.00 | 0.00 | 0.00 | 75 | 1014.0 |
| 20260906054519 | 80 | 134 | 0.0 | 0.0 | 0.00 | 0.00 | 0.00 | 76 | 1014.0 |
| 20260906054010 | 79 | 134 | 0.0 | 0.0 | 0.00 | 0.00 | 0.00 | 76 | 1013.9 |
| 20260906053510 | 80 | 134 | 0.0 | 0.0 | 0.00 | 0.00 | 0.00 | 77 | 1013.9 |
| 20260906053027 | 79 | 134 | 0.0 | 2.0 | 0.00 | 0.00 | 0.00 | 76 | 1013.9 |
| 20260906052512 | 79 | 134 | 0.0 | 2.0 | 0.00 | 0.00 | 0.00 | 77 | 1013.9 |
| 20260906052014 | 79 | 134 | 0.0 | 3.0 | 0.00 | 0.00 | 0.00 | 79 | 1013.9 |
| 20260906051541 | 79 | 153 | 0.0 | 6.0 | 0.00 | 0.00 | 0.00 | 79 | 1013.8 |
| 20260906051015 | 79 | 161 | 2.0 | 6.0 | 0.00 | 0.00 | 0.00 | 80 | 1013.9 |
| 20260906050518 | 78 | 141 | 2.0 | 5.0 | 0.00 | 0.00 | 0.00 | 83 | 1013.9 |
| 20260906050011 | 78 | 102 | 1.0 | 4.0 | 0.00 | 0.00 | 0.00 | 83 | 1013.8 |
| 20260906045508 | 78 | 142 | 2.0 | 6.0 | 0.00 | 0.00 | 0.00 | 84 | 1013.8 |
| 20260906045003 | 78 | 150 | 1.0 | 6.0 | 0.00 | 0.00 | 0.00 | 84 | 1013.8 |
| 20260906044515 | 77 | 127 | 2.0 | 5.0 | 0.00 | 0.00 | 0.00 | 85 | 1013.7 |
| 20260906044007 | 77 | 155 | 2.0 | 6.0 | 0.00 | 0.00 | 0.00 | 85 | 1013.8 |
| 20260906043510 | 77 | 140 | 3.0 | 6.0 | 0.00 | 0.00 | 0.00 | 85 | 1013.8 |
| 20260906043023 | 78 | 130 | 2.0 | 5.0 | 0.00 | 0.00 | 0.00 | 84 | 1013.7 |
| 20260906042510 | 79 | 92 | 1.0 | 6.0 | 0.00 | 0.00 | 0.00 | 82 | 1013.6 |
| 20260906042011 | 81 | 146 | 2.0 | 7.0 | 0.00 | 0.00 | 0.00 | 77 | 1013.6 |
| 20260906041527 | 83 | 152 | 2.0 | 7.0 | 0.00 | 0.00 | 0.00 | 65 | 1013.6 |
| 20260906041014 | 83 | 223 | 3.0 | 9.0 | 0.00 | 0.00 | 0.00 | 65 | 1013.6 |
| 20260906040515 | 83 | 174 | 4.0 | 9.0 | 0.00 | 0.00 | 0.00 | 65 | 1013.6 |
| 20260906040033 | 83 | 120 | 3.0 | 9.0 | 0.00 | 0.00 | 0.00 | 65 | 1013.6 |
| 20260906035516 | 82 | 82 | 2.0 | 8.0 | 0.00 | 0.00 | 0.00 | 66 | 1013.6 |
| 20260906035004 | 82 | 140 | 2.0 | 8.0 | 0.00 | 0.00 | 0.00 | 67 | 1013.7 |
| 20260906034512 | 82 | 69 | 5.0 | 8.0 | 0.00 | 0.00 | 0.00 | 67 | 1013.6 |
| 20260906034008 | 82 | 163 | 1.0 | 6.0 | 0.00 | 0.00 | 0.00 | 67 | 1013.6 |
| 20260906033507 | 81 | 128 | 2.0 | 6.0 | 0.00 | 0.00 | 0.00 | 68 | 1013.6 |
| 20260906033032 | 81 | 136 | 1.0 | 6.0 | 0.00 | 0.00 | 0.00 | 70 | 1013.6 |
| 20260906032509 | 81 | 121 | 2.0 | 6.0 | 0.00 | 0.00 | 0.00 | 71 | 1013.6 |
| 20260906032011 | 80 | 122 | 3.0 | 6.0 | 0.00 | 0.00 | 0.00 | 72 | 1013.5 |
| 20260906031536 | 80 | 141 | 2.0 | 7.0 | 0.00 | 0.00 | 0.00 | 74 | 1013.5 |
| 20260906031011 | 79 | 149 | 3.0 | 8.0 | 0.00 | 0.00 | 0.00 | 77 | 1013.5 |
| 20260906030513 | 79 | 128 | 2.0 | 8.0 | 0.00 | 0.00 | 0.00 | 80 | 1013.5 |
| 20260906030032 | 79 | 115 | 1.0 | 6.0 | 0.00 | 0.00 | 0.00 | 80 | 1013.5 |
| 20260906025516 | 80 | 147 | 1.0 | 6.0 | 0.00 | 0.00 | 0.00 | 78 | 1013.5 |
| 20260906025017 | 82 | 143 | 3.0 | 8.0 | 0.00 | 0.00 | 0.00 | 75 | 1013.4 |
| 20260906024545 | 85 | 135 | 2.0 | 8.0 | 0.00 | 0.00 | 0.00 | 65 | 1013.5 |
| 20260906024003 | 85 | 209 | 3.0 | 7.0 | 0.00 | 0.00 | 0.00 | 59 | 1013.3 |
| 20260906023506 | 85 | 138 | 2.0 | 8.0 | 0.00 | 0.00 | 0.00 | 59 | 1013.3 |
| 20260906023024 | 85 | 114 | 4.0 | 8.0 | 0.00 | 0.00 | 0.00 | 60 | 1013.2 |
| 20260906022509 | 84 | 135 | 3.0 | 7.0 | 0.00 | 0.00 | 0.00 | 60 | 1013.0 |
| 20260906022014 | 83 | 143 | 3.0 | 7.0 | 0.00 | 0.00 | 0.00 | 62 | 1013.0 |
| 20260906021526 | 82 | 179 | 2.0 | 6.0 | 0.00 | 0.00 | 0.00 | 63 | 1012.9 |
| 20260906021011 | 82 | 123 | 2.0 | 7.0 | 0.00 | 0.00 | 0.00 | 65 | 1012.8 |
| 20260906020513 | 81 | 180 | 3.0 | 7.0 | 0.00 | 0.00 | 0.00 | 68 | 1012.8 |
| 20260906020030 | 80 | 154 | 2.0 | 6.0 | 0.00 | 0.00 | 0.00 | 69 | 1012.6 |
| 20260906015515 | 80 | 130 | 2.0 | 7.0 | 0.00 | 0.00 | 0.00 | 69 | 1012.5 |
| 20260906015016 | 80 | 126 | 2.0 | 7.0 | 0.00 | 0.00 | 0.00 | 69 | 1012.4 |
| 20260906014549 | 80 | 118 | 2.0 | 6.0 | 0.00 | 0.00 | 0.00 | 70 | 1012.4 |
| 20260906014017 | 80 | 108 | 1.0 | 2.0 | 0.00 | 0.00 | 0.00 | 70 | 1012.3 |
| 20260906013517 | 81 | 83 | 0.0 | 2.0 | 0.00 | 0.00 | 0.00 | 70 | 1012.2 |
| 20260906013034 | 82 | 78 | 0.0 | 3.0 | 0.00 | 0.00 | 0.00 | 70 | 1012.1 |
| 20260906012510 | 83 | 133 | 1.0 | 3.0 | 0.00 | 0.00 | 0.00 | 68 | 1012.0 |
| 20260906012010 | 86 | 103 | 0.0 | 3.0 | 0.00 | 0.00 | 0.00 | 61 | 1012.0 |
| 20260906011523 | 90 | 105 | 0.0 | 3.0 | 0.00 | 0.00 | 0.00 | 60 | 1012.0 |
| 20260906011011 | 92 | 136 | 0.0 | 6.0 | 0.00 | 0.00 | 0.00 | 46 | 1011.9 |
| 20260906010511 | 92 | 87 | 0.0 | 6.0 | 0.00 | 0.00 | 0.00 | 43 | 1011.9 |
| 20260906010028 | 93 | 98 | 1.0 | 6.0 | 0.00 | 0.00 | 0.00 | 43 | 1011.8 |
| 20260906005513 | 93 | 61 | 1.0 | 6.0 | 0.00 | 0.00 | 0.00 | 42 | 1011.9 |
| 20260906005015 | 94 | 219 | 1.0 | 3.0 | 0.00 | 0.00 | 0.00 | 41 | 1011.8 |
| 20260906004531 | 94 | 108 | 1.0 | 4.0 | 0.00 | 0.00 | 0.00 | 41 | 1011.8 |
| 20260906004015 | 94 | 155 | 1.0 | 4.0 | 0.00 | 0.00 | 0.00 | 40 | 1011.7 |
| 20260906003516 | 95 | 51 | 1.0 | 5.0 | 0.00 | 0.00 | 0.00 | 40 | 1011.7 |
| 20260906003034 | 95 | 108 | 1.0 | 5.0 | 0.00 | 0.00 | 0.00 | 40 | 1011.7 |
| 20260906002515 | 95 | 98 | 1.0 | 5.0 | 0.00 | 0.00 | 0.00 | 39 | 1011.6 |
| 20260906002008 | 95 | 349 | 1.0 | 5.0 | 0.00 | 0.00 | 0.00 | 39 | 1011.6 |
| 20260906001521 | 96 | 299 | 1.0 | 7.0 | 0.00 | 0.00 | 0.00 | 39 | 1011.6 |
| 20260906001008 | 96 | 84 | 2.0 | 7.0 | 0.00 | 0.00 | 0.00 | 38 | 1011.5 |
| 20260906000511 | 96 | 269 | 2.0 | 8.0 | 0.00 | 0.00 | 0.00 | 38 | 1011.4 |
| 20260906000023 | 97 | 96 | 3.0 | 8.0 | 0.00 | 0.00 | 0.00 | 38 | 1011.5 |
| 20260905235514 | 97 | 121 | 1.0 | 8.0 | 0.00 | 0.00 | 0.00 | 37 | 1011.4 |
| 20260905235013 | 97 | 122 | 3.0 | 8.0 | 0.00 | 0.00 | 0.00 | 37 | 1011.4 |
| 20260905234532 | 97 | 86 | 3.0 | 8.0 | 0.00 | 0.00 | 0.00 | 36 | 1011.4 |
| 20260905234015 | 97 | 157 | 3.0 | 10.0 | 0.00 | 0.00 | 0.00 | 35 | 1011.4 |
| 20260905233520 | 98 | 151 | 5.0 | 10.0 | 0.00 | 0.00 | 0.00 | 36 | 1011.4 |
| 20260905233032 | 98 | 101 | 2.0 | 9.0 | 0.00 | 0.00 | 0.00 | 36 | 1011.4 |
| 20260905232518 | 98 | 97 | 3.0 | 9.0 | 0.00 | 0.00 | 0.00 | 36 | 1011.4 |
| 20260905232020 | 98 | 163 | 3.0 | 10.0 | 0.00 | 0.00 | 0.00 | 36 | 1011.4 |
| 20260905231535 | 98 | 98 | 5.0 | 10.0 | 0.00 | 0.00 | 0.00 | 36 | 1011.4 |
| 20260905231015 | 98 | 127 | 3.0 | 11.0 | 0.00 | 0.00 | 0.00 | 35 | 1011.4 |
| 20260905230507 | 98 | 130 | 2.0 | 11.0 | 0.00 | 0.00 | 0.00 | 36 | 1011.4 |
| 20260905230023 | 98 | 97 | 3.0 | 9.0 | 0.00 | 0.00 | 0.00 | 35 | 1011.4 |
| 20260905225512 | 99 | 161 | 4.0 | 12.0 | 0.00 | 0.00 | 0.00 | 36 | 1011.4 |
| 20260905225011 | 99 | 132 | 5.0 | 12.0 | 0.00 | 0.00 | 0.00 | 36 | 1011.3 |
| 20260905224528 | 99 | 157 | 3.0 | 8.0 | 0.00 | 0.00 | 0.00 | 36 | 1011.3 |
| 20260905224012 | 99 | 38 | 2.0 | 7.0 | 0.00 | 0.00 | 0.00 | 36 | 1011.4 |